Main page
METAR-TAF:

METAR-TAF

Airports :

Boulmer, England

RAF Boulmer

latitude: 55-25-19N, longitude: 1-36-12W, elevation: 24 m

Current weather observation

The report was made 17 minutes ago, at 23:50 UTC
Wind 8 kt from the South/Southwest
Temperature 8°C
Humidity 100%
Pressure 1016 hPa
Visibility 10 km or more

METAR: EGQM 192350Z AUTO 21008KT 9999 NCD 08/08 Q1016

Time: 01:07 (00:07 UTC)


TAF: missing

Weather observations and forecasts of more than 4000 airports (METAR and TAF reports).

The available stations are represented by yellow and red dots on the map.

Hover mouse over dot to see the name of the station.

Then click to see weather observations and forecasts.

To change the map : click on the green buttons with a black cross to zoom in, on the green button with a dash to zoom out, or on the green arrows for adjacent maps.


METAR-TAF: